Regional Weather Roundup
Issued by NWS

Home | Current Version | Previous Version | Text Only | Print | Product List | Glossary Off
Versions: 1 2 3 4 5 6 7 8 9 10 11 12 13 14 15 16 17 18 19 20 21 22 23 24 25 26 27 28 29 30 31 32 33 34 35 36 37 38 39 40 41 42 43 44 45 46 47 48 49 50

071
ASUS45 KTFX 102210
RWRMT
MONTANA REGIONAL WEATHER ROUNDUP
NATIONAL WEATHER SERVICE GREAT FALLS MT
300 PM MST WED FEB 10 2016

NOTE: "FAIR" INDICATES FEW OR NO CLOUDS BELOW 12000 FEET WITH NO
SIGNIFICANT WEATHER AND/OR OBSTRUCTIONS TO VISIBILITY.

MTZ001>007-043-102300-
WEST OF THE DIVIDE

CITY           SKY/WX    TMP DP  RH WIND       PRES   REMARKS
KALISPELL      MOSUNNY   40  30  67 CALM      30.19F
MISSOULA       PTSUNNY   36  31  82 CALM      30.23F
BUTTE          SUNNY     37  22  54 CALM      30.23F
MULLAN PASS    PTSUNNY   41  26  55 VRB5      30.23R
ANACONDA         N/A     48  23  37 N5        30.21S
DEER LODGE       N/A     39  28  65 CALM      30.22F
HAMILTON         N/A     48  32  53 N6        30.21F
LIBBY            N/A     39  30  70 CALM      30.21F
PLAINS           N/A     41  36  82 CALM      30.20F
$$

MTZ008-052>055-102300-
SOUTHWEST MONTANA

CITY           SKY/WX    TMP DP  RH WIND       PRES   REMARKS
BOZEMAN        SUNNY     35  28  75 CALM      30.21F
DILLON         CLOUDY    46  29  51 SW15      30.22
ENNIS          SUNNY     52  25  35 S16G25    30.28F
TWIN BRIDGES     N/A     41  26  55 SW8       30.19F
$$

MTZ009-010-012-014-046-048-049-054-102300-
EAST SLOPES AND CENTRAL MONTANA

CITY           SKY/WX    TMP DP  RH WIND       PRES   REMARKS
CUT BANK       CLOUDY    54  28  36 W23G30    30.03F
GREAT FALLS    MOSUNNY   56  26  31 SW18      30.07
MALMSTROM AFB  CLOUDY    57  27  31 SW7       30.08F
HELENA         MOSUNNY   47  30  51 CALM      30.18
CHOTEAU          N/A     57  21  24 W15       30.07F
CONRAD           N/A     55  33  43 S5        30.07F
$$

MTZ011-013-016-021-045-047-050-051-102300-
NORTH CENTRAL MONTANA

CITY           SKY/WX    TMP DP  RH WIND       PRES   REMARKS
HAVRE          SUNNY     50  33  52 NE5       30.06
LEWISTOWN      MOSUNNY   51  29  42 NW3       30.08
N BAR RANCH      N/A     52  25  35 NW7       30.11R
CHINOOK          N/A     48  32  53 NE5       30.07F
$$

MTZ017>020-022>027-061-062-102300-
NORTHEAST MONTANA

CITY           SKY/WX    TMP DP  RH WIND       PRES   REMARKS
GLASGOW        CLOUDY    34  28  79 N13       30.12  WCI  25
JORDAN           N/A     43  34  70 N13       30.08S
SIDNEY         CLOUDY    36  27  69 N15G22    30.09R WCI  26
WOLF POINT     CLOUDY    38  29  70 N13       30.13  WCI  30
PLENTYWOOD       N/A     30  27  86 N15       30.09R WCI  19
POPLAR           N/A     36  28  75 NW15      30.11S WCI  26
SCOBEY           N/A     31  21  66 NW14      30.08R WCI  21
$$

MTZ028>42-056>058-102300-
SOUTHCENTRAL AND SOUTHEAST MONTANA

CITY           SKY/WX    TMP DP  RH WIND       PRES   REMARKS
BAKER          CLOUDY    46  30  53 N15       30.03
BILLINGS       PTSUNNY   65  20  17 NW20G28   30.06S
LIVINGSTON     SUNNY     61  15  16 W24G32    30.15
MILES CITY     SUNNY     51  33  50 NW14      30.06
FORSYTH          N/A     52  30  43 N5        30.06S
LAUREL           N/A     64  22  20 W16       30.05S
ROUNDUP          N/A     57  24  28 S10       29.98R
$$

REGIONAL REPORTS...DAKOTAS

CITY           SKY/WX    TMP DP  RH WIND       PRES   REMARKS
WILLISTON      CLOUDY    31  25  78 N9        30.09S WCI  23
MINOT          LGT SNOW  16   7  67 N8        30.13R WCI   5
DICKINSON      CLOUDY    32  26  78 N21       30.02R WCI  20
BEACH          CLOUDY    34  32  93 N15G23    30.09R WCI  24
CROSBY         CLOUDY    25  23  93 N9        30.13R WCI  15
TIOGA          CLOUDY    25  25 100 N12       30.13R WCI  14
WATFORD CITY   CLOUDY    30  25  80 N13       30.08R WCI  20
BISMARCK       CLOUDY    24  15  68 NE8       30.09R WCI  15
GRAND FORKS    CLOUDY    10   0  63 NE9       30.22R WCI  -3
FARGO          CLOUDY    12   1  61 N10       30.17R WCI  -1
BUFFALO SD       N/A     51  31  46 NW21      29.93R
RAPID CITY     CLOUDY    59  23  25 NW25G33   29.94R
$$

REGIONAL REPORTS...WYOMING/IDAHO/WASHINGTON

CITY           SKY/WX    TMP DP  RH WIND       PRES   REMARKS
GILLETTE       CLOUDY    57  26  30 NW16G25   30.04R
SHERIDAN       MOSUNNY   59  18  20 NW14      30.02S
BUFFALO WY     CLOUDY    54  25  32 N14G22    30.08R
CODY           CLOUDY    57  16  19 W16G24    30.11S
YELLOWSTONE LA   N/A     39  21  48 CALM      30.32F
IDAHO FALLS    CLOUDY    27  22  81 NE3       30.39
SALMON         SUNNY     21  19  93 CALM      30.39F
BOISE          SUNNY     41  31  67 CALM      30.41
SPOKANE        CLOUDY    40  34  79 NE3       30.22F
$$

REGIONAL REPORTS...ALBERTA

CITY           SKY/WX    TMP DP  RH WIND       PRES   REMARKS
EDMONTON       CLOUDY    32  25  74 E10       30.10F WCI  24
CALGARY        PTSUNNY   36  30  80 SE10      29.99F WCI  28
LETHBRIDGE     PTSUNNY   45  30  57 NE10      30.02F
MEDICINE HAT   PTSUNNY   39  32  75 NE12      30.09F WCI  32
WATERTON GATE    N/A     55  25  30 SW14G24     N/A
CARDSTON         N/A     59  23  25 W17G28      N/A
MILK RIVER       N/A     54  27  35 S8          N/A
ONEFOUR          N/A     48  28  46 SE5         N/A
$$

REGIONAL REPORTS...SASKATCHEWAN

CITY           SKY/WX    TMP DP  RH WIND       PRES   REMARKS
SWIFT CURRENT  CLOUDY    28  28 100 E8        30.10S FOG     WCI  20
REGINA         PTSUNNY   21  16  79 N14       30.12S WCI   8
SASKATOON      CLOUDY    21  18  86 NE6       30.21S WCI  14
CYPRESS HILLS    N/A     37  28  70 NE3         N/A
VAL MARIE        N/A     34  28  80 N12         N/A  WCI  25
ROCKGLEN         N/A     28  25  86 N15G23      N/A  WCI  17
$$




USA.gov is the U.S. government's official web portal to all federal, state and local government web resources and services.